This is the latest recevied weather packets stored in our database for station/object IK2ILW-4. If no packets are shown the sender has not sent any weather packets the latest 10 day(s).
| Time | Temp. | Humidity | Pressure | Rain* | Wind** | Luminosity | Snow |
|---|---|---|---|---|---|---|---|
| 1787819555 | 20.56° C | 73% | 1023.7 hPa | 0 mm | - | 406 W/m² | - |
| 1787819272 | 21.11° C | 73% | 1023.9 hPa | 0 mm | - | 506 W/m² | - |
| 1787818962 | 21.11° C | 74% | 1023.9 hPa | 0 mm | - | 490 W/m² | - |
| 1787818659 | 20.56° C | 75% | 1023.9 hPa | 0 mm | - | 257 W/m² | - |
| 1787818361 | 20.56° C | 75% | 1023.6 hPa | 0 mm | - | 237 W/m² | - |
| 1787818058 | 20.56° C | 76% | 1023.6 hPa | 0 mm | - | 457 W/m² | - |
| 1787817755 | 20.56° C | 76% | 1023.6 hPa | 0 mm | - | 367 W/m² | - |
| 1787817474 | 20.56° C | 74% | 1023.8 hPa | 0 mm | - | 448 W/m² | - |
| 1787817162 | 20° C | 76% | 1023.8 hPa | 0 mm | - | 434 W/m² | - |
| 1787816871 | 20° C | 78% | 1023.8 hPa | 0 mm | - | 415 W/m² | - |
| 1787816570 | 20° C | 75% | 1023.5 hPa | 0 mm | - | 410 W/m² | - |
| 1787816266 | 20.56° C | 73% | 1023.5 hPa | 0 mm | - | 399 W/m² | - |
| 1787815956 | 20.56° C | 75% | 1023.5 hPa | 0 mm | - | 385 W/m² | - |
| 1787815668 | 20.56° C | 74% | 1023.2 hPa | 0 mm | - | 373 W/m² | - |
| 1787815359 | 20.56° C | 75% | 1023.2 hPa | 0 mm | - | 362 W/m² | - |
| 1787815066 | 20° C | 75% | 1023.2 hPa | 0 mm | - | 357 W/m² | - |
| 1787814756 | 19.44° C | 76% | 1023.3 hPa | 0 mm | - | 345 W/m² | - |
| 1787814470 | 19.44° C | 76% | 1023.3 hPa | 0 mm | - | 332 W/m² | - |
| 1787814174 | 18.89° C | 76% | 1023.3 hPa | 0 mm | - | 318 W/m² | - |
| 1787813874 | 18.89° C | 75% | 1023.3 hPa | 0 mm | - | 308 W/m² | - |
| 1787813568 | 18.89° C | 75% | 1023.3 hPa | 0 mm | - | 320 W/m² | - |
| 1787813275 | 18.89° C | 76% | 1023.3 hPa | 0 mm | - | 309 W/m² | - |
| 1787812970 | 18.89° C | 77% | 1023.3 hPa | 0 mm | - | 279 W/m² | - |
| 1787812664 | 18.89° C | 77% | 1023.3 hPa | 0 mm | - | 269 W/m² | - |
| 1787812372 | 18.89° C | 77% | 1023.3 hPa | 0 mm | - | 169 W/m² | - |
* Rain since midnight (hover to see other rain measurements)
** Current wind speed in m/s (hover to see current wind gust speed)